Погода в Яшкуле

Хотите узнать прогноз погоды в Яшкуле? Тогда Вам сюда: Погода в Яшкуле

Поиск расширенной информации на нашем сайте:

Полезная информация:

Новости сайта



02.01.2020
Опубликован Долгосрочный прогноз погоды по городам России и ближнего зарубежья на январь 2020 года.
Карты: Прогноз на январь и февраль 2020 года, Сравнение прогнозируемой аномалии приземной температуры воздуха на январь 2020 года по разным моделям.




Погода в Яшкуле - сегодня

Время (UTC), дата Ветер
(°,м/с) 
Видим.   Явления Облачность Т
(°С)
Тd
(°С)
f(%) Тe
(°С)
Pmin
(гПа)
dP
(гПа)
Po
(мм)
O2
(г/м3)
Тmin Tmax R s Состояние
почвы
12 19.10.20 050 (СВ) 20000 м  {туман}  6/0 средняя, верхняя 
[Ac trans|Ci fib]
+20.4 +11.7 57 +24  1014.4  0.3  761  283           
15 19.10.20 070 (В) 20000 м  {туман}  8/0 средняя 
[Ac trans]
+18.4 +11.4 64 +22  1014.2  -0.2  761  285    +20.7       
18 19.10.20 040 (СВ) 20000 м    10/0 средняя 
[Ac As]
+16.5 +10.1 66 +18  1014.9  0.6  762  288           
21 19.10.20 310 (СЗ) 10 км  слаб. ливневой дождь  10/10 600 м кучево-дожд. 
[Cb cap]
+13.1 +12 93 +17  1016.5  1.6  763  291           
00 20.10.20 340 (С) 7-12{13}  10 км  слаб. дождь{ливн. осадки}  10/10 300 м 
[Frnb|Ns]
+11 +10.1 94 +10  1019.3  2.8  765  295           
03 20.10.20 350 (С) 20000 м  {дождь, ливн. осадки}  ясно 
+9.1 +7.4 89 +8  1022.2  2.9  767  298  +9.1      влажная 
06 20.10.20 310 (СЗ) 20000 м  {дождь}  8/0 средняя 
[Ac trans]
+11.2 +6.4 72 +10  1024.6  2.4  769  297  +8.4         
09 20.10.20 260 (З) 20000 м  {дождь}  9/4 300 м средняя 
[St|Ac trans]
+13.8 +7.1 64 +14  1024.2  -0.4  769  294           
12 20.10.20 280 (З) 20000 м    10/6 300 м средняя 
[St|Ac As]
+14.5 +7.9 65 +14  1023.5  -0.7  768  293           
15 20.10.20 260 (З) 20000 м    8/3 300 м средняя 
[St|Ac trans]
+12.8 +8.4 75 +13  1023.6  0.1  768  294    +15       
18 20.10.20 280 (З) 20000 м    8/0 средняя 
[Ac und]
+9.9 +6.1 77 +9  1024.4  0.8  769  298           
21 20.10.20 280 (З) 20000 м    ясно 
+6.4 +3.9 84 +5  1025.1  0.8  769  302           
00 21.10.20 260 (З) 20000 м    ясно 
+4.5 +2 84 +3  1025.6  0.5  770  305           
03 21.10.20 280 (З) 20000 м    ясно 
+3.2 +0.5 82 +2  1026.9  1.3  771  307  +3.2         
06 21.10.20 290 (З) 20000 м    ясно 
+8.4 +2.2 65 +8  1028.4  1.6  772  301  +2.9         
09 21.10.20 300 (СЗ) 20000 м    ясно 
+13 +0.3 42 +12  1028.3  -0.2  772  297           
12 21.10.20 290 (З) 4{11}  20000 м    ясно 
+13.5 -3.6 30 +13  1027.4  -0.9  771  297           
15 21.10.20 300 (СЗ) 20000 м    ясно 
+9.3 -1.5 47 +9  1028  0.6  772  301    +13.6       
18 21.10.20 250 (З) 20000 м    ясно 
+7.1 -0.5 58 +7  1027.8  -0.2  771  303           
21 21.10.20 290 (З) 20000 м    10/0 средняя 
[Ac As]
+6.5 +0.5 65 +7  1026.9  -0.8  771  303           
00 22.10.20 200 (Ю) 20000 м    10/0 средняя 
[Ac As]
+6.2 +1.2 70 +7  1025.8  -1.1  770  303           
03 22.10.20 тихо ()   20000 м    10/0 средняя 
[Ac As]
+5.9 +1.4 73 +6  1025.6  -0.1  770  303  +5.9         
06 22.10.20 190 (Ю) 20000 м    10/0 средняя 
[Ac As]
+8.5 +1.1 60 +10  1025.7  770  301  +5         
09 22.10.20 190 (Ю) 20000 м    10/0 средняя 
[Ac As]
+12.6 -0.8 40 +14  1025.6  -0.1  770  297           
12 22.10.20 110 (В) 20000 м    6/0 верхняя 
[Ci]
+14.1 -1.8 33 +15  1024.6  -1  769  295           
Время (UTC), дата Ветер
(°,м/с) 
Видим.   Явления Облачность Т
(°С)
Тd
(°С)
f(%) Тe
(°С)
Pmin
(гПа)
dP
(гПа)
Po
(мм)
O2
(г/м3)
Тmin Tmax R s Состояние
почвы

Для получения пояснительной информации подведите курсор к названию столбца.

ПОГОДА в Яшкуле - архив

Всё, что Вы хотите узнать о погоде в Яшкуле - удобно и подробно!

Выберите нужную дату (начиная с 1 января 2019* года) и нажмите кнопку "Найти".
Будут отображены архивные сводки погоды по пункту Яшкуль, начиная с указанной даты.


Отображать данные в формате CSV (для использования в таблицах Excel)


Внимание! Наш архив погоды предназначен исключительно для личного некоммерческого использования в познавательных целях. Если Вам необходимы официальные справки о состоянии погоды (для производственных, юридических, коммерческих и т.п. целей), обращайтесь в органы Росгидромета.

*Примечание: данная дата относится к архиву по метеостанциям СССР (Россия, СНГ, Балтия).
Архив по метеостанциям Зарубежной Европы и Азии (кроме Китая) хранится 10 дней, по другим регионам земного шара (Китай, Африка, Америка, Австралия, Океания) - 1 день.

Яшкуль - район местоположения метеостанции


Название, широта, долгота, высота метеостанции:
Яшкуль 46.2°ш. 45.3°д. -7 м над ур. моря [Российская Федерация]

Дополнительная информация

В oтличие oт бoльшинства пoгoдных сайтoв мы публикуем пoдрoбную метеoинфoрмацию в детальнoм прoфессиoнальнoм фoрмате.

Характеристики температуры и влажнoсти вoздуха измеряются на высoте 2 м в тени вдали oт зданий и деревьев.
Скoрoсть ветра измеряется на высoте 10 м (на урoвне рoста челoвека скoрoсть ветра ниже в 1.5-2 раза). Если метеoстанция нахoдится в гoрoде или в лесу, тo скoрoсть ветра занижена на 2-4 м/с пo сравнению с oткрытым местoм. Скoрoсть ветра над акватoриями крупных рек и oзёр, а также на вершинах хoлмoв на 2-5 м/с выше, чем в oбычных услoвиях.
Атмoсфернoе давление в разных тoчках местнoсти мoжет значительнo oтличаться oт давления на метеoстанции, в зависимoсти oт услoвий рельефа (при пoдъёме на 10 м давление пoнижается примернo на 1 мм рт.ст.).